Back to catalog

FENGYUN 1C DEB

LostPO
NORAD 38811·DEBRIS·🇨🇳 China

Launched May 10, 1999 from Taiyuan Satellite Launch Center

Loading…

Next Passes (next 24 hours)

TLE

StaleSource: Space-Track

Epoch: Oct 3, 2024, 02:44 UTC

1 38811U 99025EVB 24277.11394250  .00053621  00000-0  16567-1 0  9996
2 38811  99.0180  33.1985 0036948 306.7598  53.0199 14.40595057580085

Track FENGYUN 1C DEB in real time with AllMySat

Download on the App Store